Regional Weather Roundup
Issued by NWS

Home | Current Version | Previous Version | Graphics & Text | Print | Product List | Glossary On
Versions: 1 2 3 4 5 6 7 8 9 10 11 12 13 14 15 16 17 18 19 20 21 22 23 24 25 26 27 28 29 30 31 32 33 34 35 36 37 38 39 40 41 42 43 44 45 46 47 48 49 50
000
ASUS43 KMKX 231011
RWRWI

WISCONSIN REGIONAL WEATHER ROUNDUP
NATIONAL WEATHER SERVICE MILWAUKEE/SULLIVAN WI
500 AM CDT SAT AUG 23 2014

NOTE: "FAIR" INDICATES FEW OR NO CLOUDS BELOW 12,000 FEET WITH NO
SIGNIFICANT WEATHER AND/OR OBSTRUCTIONS TO VISIBILITY.

WIZ001-002-006>008-014>016-023>028-231100-
NORTHWEST WISCONSIN

CITY           SKY/WX    TMP DP  RH WIND       PRES   REMARKS
SUPERIOR ARPT  CLOUDY    61  61  99 NE3       30.05R
ASHLAND        CLOUDY    62  60  93 CALM      30.05S
HAYWARD        CLOUDY    64  63  96 NE3       30.03F
SIREN          CLOUDY    64  63  97 CALM      30.02S FOG
RICE LAKE      CLOUDY    66  64  93 NE3       30.02F
LADYSMITH      CLOUDY    66  65  96 N5        30.03F FOG
EAU CLAIRE     CLOUDY    69  68  96 NE7       29.97F
MENOMONIE      CLOUDY    68  66  94 NE5       29.98F
NEW RICHMOND   CLOUDY    68  67  97 E5        29.99F
OSCEOLA        CLOUDY    68  68 100 NE5       30.02S
$$

WIZ003>005-009-010-017-018-231100-
NORTH CENTRAL WISCONSIN

CITY           SKY/WX    TMP DP  RH WIND       PRES   REMARKS
WOODRUFF       FOG       67  65  93 CALM      30.04S VSB 1/2
RHINELANDER    FOG       68  67  96 N3        30.04F VSB 1/2
EAGLE RIVER    FOG       67  67 100 CALM      30.03F VSB 1/4
LAND O LAKES   CLOUDY    66  66 100 N3        30.06R FOG
PHILLIPS       FOG       64  64 100 CALM      30.02F VSB 1
TOMAHAWK       FOG       67  66  96 CALM      30.03F VSB 1/2
MEDFORD        FOG       68  68 100 CALM      30.01F VSB 1/2
MERRILL        CLOUDY    69  69 100 E3        30.00F FOG
$$

WIZ029-030-035-036-043>047-231100-
CENTRAL WISCONSIN

CITY           SKY/WX    TMP DP  RH WIND       PRES   REMARKS
WAUSAU         CLOUDY    70  69  97 E5        29.99F FOG
MOSINEE        FOG       68  68 100 E5        30.01F VSB 1/4
MARSHFIELD     FOG       72  71  97 E7        29.98F VSB 1/2
STEVENS POINT  CLOUDY    68  67  98 NE5       29.99F FOG
WAUPACA        FOG       72  70  94 E3        29.99S VSB 1/2
WAUTOMA        CLOUDY    72  71  96 CALM      29.98F FOG
WISC RAPIDS    CLOUDY    72  70  93 E7        29.98F FOG
CAMP DOUGLAS   FOG       70  70 100 CALM      29.96F VSB 1/4
$$

WIZ011>013-019>022-031-037>040-048>050-231100-
NORTHEAST WISCONSIN

CITY           SKY/WX    TMP DP  RH WIND       PRES   REMARKS
ANTIGO         CLOUDY    68  67  98 E5        30.03F FOG
STURGEON BAY   CLOUDY    68  64  88 SE7       30.02F
GREEN BAY      LGT RAIN  69  67  93 NE5       30.00F
MANITOWOC      CLOUDY    68  67  96 CALM      30.01F FOG
APPLETON       CLOUDY    68  68 100 E6        29.99F FOG
CLINTONVILLE   FOG       68  68 100 E7        30.00F VSB 1/4
OSHKOSH        CLOUDY    72  71  97 CALM      29.98F FOG
$$

WIZ032>034-041-042-053>061-231100-
SOUTHWEST WISCONSIN

CITY           SKY/WX    TMP DP  RH WIND       PRES   REMARKS
LA CROSSE      CLOUDY    74  71  91 N3        29.94F
SPARTA         FOG       70  69  97 CALM      29.96F VSB 1/4
VIROQUA        FAIR      70  70 100 E5        29.96F
BOSCOBEL       CLOUDY    74  72  93 N3        29.93F FOG
PRAIRIE DU CHI CLOUDY    74  72  93 CALM      29.92S FOG
PLATTEVILLE    MOCLDY    73  72  96 CALM      29.95F VSB 1/2
$$

WIZ056-057-062-063-064-067-068-231100-
SOUTH CENTRAL WISCONSIN

CITY           SKY/WX    TMP DP  RH WIND       PRES   REMARKS
BARABOO/DELLS  FOG       73  71  94 CALM      29.96F VSB<1/4
LONE ROCK      FOG       76  72  87 E3        29.94S VSB 1/2
WATERTOWN      FOG       71  71 100 E5        29.97F VSB 1/2
MADISON        FOG       75  73  93 SE6       29.96F VSB 1
MIDDLETON      CLOUDY    76  76 100 SE6       29.97S
MONROE         FOG       72  72 100 E3        29.97F VSB 1/4
JANESVILLE     PTCLDY    72  70  94 CALM      29.95F FOG
$$

WIZ051-052-058>065-066-070>072-231100-
SOUTHEAST WISCONSIN

CITY           SKY/WX    TMP DP  RH WIND       PRES   REMARKS
MILWAUKEE      FOG       69  68  96 NE5       29.99S VSB 1/2
WAUKESHA       FOG       68  68 100 CALM      30.00S VSB 1/2
MILWAUKEE/TIMM FOG       68  64  88 CALM      30.00S VSB 1/2
RACINE         FOG       69  68  96 CALM      30.00S VSB 1/4
BURLINGTON     FOG       69  69  99 CALM      29.98F VSB 1/4
KENOSHA        FOG       70  70 100 CALM      29.99S VSB 1/4
FOND DU LAC    CLOUDY    71  69  93 SE5       29.98F FOG
SHEBOYGAN      FOG       68  67  96 NE7       30.00F VSB 1/2
WEST BEND      FOG       66  64  94 CALM      30.00S VSB 1/4
JUNEAU         HAZE      70  46  42 E6        29.99F VSB<1/4
$$

LSZ147-162-231100-
LAKE SUPERIOR

STATION/POSITION TIME  TEMP    WIND        PRES    WAVE
                       AIR SEA DIR/SP/G            HT/PER
                 (UTC) (F)     (DEG/KT/KT) (MB)    (FT/S)
W MID LAKE BUOY  0950   59 58   50/  6/  8 1017.4R   1/ 3
DEVILS ISLAND    1000   60      60/  8/ 10 1017.5S
PORT WING        0900   61      50/  3/  3 1017.6S
SAXON HARBOR     0900   62        CALM     1017.3S
$$

LMZ867-665-643>646-231100-
LAKE MICHIGAN

STATION/POSITION TIME  TEMP    WIND        PRES    WAVE
                       AIR SEA DIR/SP/G            HT/PER
                 (UTC) (F)     (DEG/KT/KT) (MB)    (FT/S)
N MID LAKE BUOY  0950   67 65  120/  6/  6 1016.4R   0
NORTHPORT PIER   0900   66     150/  3/  4 1016.3S
SISTER BAY       0911   68        CALM       N/A
KEWAUNEE LAKESHO 0900   67     180/  2/  4 1015.2R
SHEBOYGAN LAKESH 1000   67 65   20/  5/  5 1016.1F
ATWATER BUOY     0900   69      30/  2/  2 1016.7F
MILWAUKEE LAKESH 0900   69      30/  2/  3   N/A
S MID LAKE BUOY  0950   70 69  110/  8/  8 1015.2R   1
KENOSHA   LAKESH 1000   70      20/  3/  3 1015.2R
$$

TC  - TEMPERATURE IN CELSIUS
VSB - VISIBILITY IN STATUTE MILES
WCI - WIND CHILL INDEX
HX  - HEAT INDEX




USA.gov is the U.S. government's official web portal to all federal, state and local government web resources and services.